Home   Weather   Heraklion   Past weeks

Flag for Greece Past Weather in Heraklion, Crete, Greece — Yesterday and Last 2 Weeks

Now
55 °F

Clear.


Feels Like: 53 °F
Forecast: 54 / 66 °F
Wind: 8 mph from South

Location: Heraklion Airport

Current Time: Dec 2, 2016 at 10:09:09 pm

Latest Report: Dec 2, 2016 at 9:20 pm


Visibility: 10 mi

Pressure: 30.04 "Hg

Humidity: 55%

Dew Point: 39 °F

Location of HeraklionLocation

Past Weather in Heraklion — Graph

°F

Heraklion Temperature Yesterday

Maximum temperature yesterday: 54 °F (at 12:20 am)
Minimum temperature yesterday: 50 °F (at 6:50 am)
Average temperature yesterday: 52 °F

High & Low Weather Summary for the Past Weeks

 TemperatureHumidityPressure
High73 °F (Nov 28, 1:50 pm)94% (Nov 21, 7:20 am)30.24 "Hg (Nov 21, 7:20 am)
Low48 °F (Nov 18, 4:50 am)0% (Nov 25, 2:20 am)29.71 "Hg (Nov 29, 3:50 pm)
Average60 °F73%30.05 "Hg
* Reported Nov 17 8:20 pm — Dec 2 8:50 pm, Heraklion, Weather by CustomWeather, © 2016

Note: Actual official high and low records may vary slightly from our data, if they occured in-between our weather recording intervals... More about our weather records

Advertising

Heraklion Weather History for the Previous 24 Hours

Scroll right to see more
 ConditionsComfort  
Time TempWeatherWind HumidityBarometerVisibility
8:50 pm
Fri, Dec 2
57 °FClear.7 mph59%30.04 "Hg10 mi
8:20 pm57 °FClear.7 mph59%30.04 "Hg10 mi
7:50 pm57 °FClear.8 mph59%30.04 "Hg10 mi
7:20 pm55 °FClear.8 mph59%30.01 "Hg10 mi
6:50 pm55 °FClear.7 mph59%29.98 "Hg10 mi
6:20 pm55 °FClear.8 mph63%29.98 "Hg10 mi
5:50 pm57 °FClear.7 mph59%29.98 "Hg10 mi
5:20 pm59 °FClear.9 mph48%29.98 "Hg10 mi
4:50 pm61 °FSunny.9 mph48%29.98 "Hg10 mi
4:20 pm61 °FPassing clouds.18 mph48%29.98 "HgN/A
3:50 pm61 °FPassing clouds.18 mph48%29.98 "HgN/A
3:20 pm63 °FPassing clouds.21 mph45%29.98 "HgN/A
2:50 pm63 °FPassing clouds.21 mph45%29.98 "HgN/A
2:20 pm63 °FPassing clouds.20 mph45%29.98 "HgN/A
1:50 pm63 °FPassing clouds.16 mph45%29.98 "HgN/A
1:20 pm63 °FPassing clouds.15 mph45%29.98 "HgN/A
12:50 pm63 °FPassing clouds.16 mph45%29.98 "HgN/A
12:20 pm61 °FScattered clouds.7 mph52%30.01 "HgN/A
11:50 am61 °FScattered clouds.6 mph52%30.01 "HgN/A
11:20 am61 °FScattered clouds.6 mph48%30.04 "HgN/A
10:50 am61 °FScattered clouds.3 mph48%30.04 "HgN/A
10:20 am57 °FScattered clouds.5 mph55%30.04 "HgN/A
9:50 am57 °FScattered clouds.6 mph55%30.04 "HgN/A
8:50 am54 °FPartly sunny.3 mph63%30.04 "HgN/A
8:20 am52 °FPartly sunny.6 mph62%30.01 "HgN/A
7:50 am50 °FScattered clouds.7 mph67%30.01 "HgN/A
7:20 am52 °FPartly sunny.8 mph62%30.01 "HgN/A
6:50 am52 °FPassing clouds.6 mph62%30.01 "HgN/A
6:20 am52 °FPassing clouds.7 mph58%30.01 "HgN/A
5:50 am52 °FPassing clouds.7 mph58%30.01 "HgN/A
5:20 am52 °FPassing clouds.13 mph58%30.01 "HgN/A
4:50 am52 °FPassing clouds.13 mph58%30.01 "HgN/A
4:20 am54 °FPassing clouds.15 mph58%30.01 "HgN/A
3:50 am54 °FPassing clouds.15 mph58%30.01 "HgN/A
3:20 am54 °FPassing clouds.17 mph54%30.01 "HgN/A
2:50 am54 °FPassing clouds.17 mph54%30.01 "HgN/A
2:20 am54 °FPassing clouds.17 mph54%30.01 "HgN/A
1:50 am54 °FPassing clouds.20 mph54%30.01 "HgN/A
1:20 am54 °FPassing clouds.23 mph54%30.01 "HgN/A
12:50 am54 °FPassing clouds.23 mph54%30.01 "HgN/A
12:20 am54 °FPassing clouds.25 mph54%30.01 "HgN/A
11:50 pm
Thu, Dec 1
54 °FPassing clouds.26 mph54%30.01 "HgN/A
11:20 pm54 °FPassing clouds.25 mph54%30.01 "HgN/A
10:50 pm54 °FPassing clouds.23 mph54%30.01 "HgN/A
10:20 pm54 °FPassing clouds.23 mph54%30.04 "HgN/A
Weather by CustomWeather, © 2016

See weather overviewHow to use our weather pages